[[{"header":{"parameterUnit":"m.s-1","parameterCategory":2,"la1":30.2991,"la2":30.254,"lo1":-89.0895,"lo2":-89.0444,"dy":0.0017,"dx":0.0017,"nx":28,"ny":28,"refTime":"2025-01-11T09:00:00:Z","depth":"0","parameterNumber":2,"parameterNumberName":"U-component_of_CURRENTS"},"data":[0,0,0,0,0,0,0,0,0,0,0,0,0,0,0,0,0,0,0,0,0,0,0,0,0,0,0,0,0,0,0,0,0,0,0,0,0,0,0,0,0,0,0,0,0,0,0,0,0,0,0,0,0,0,0,0,0,0,-0.3311,-0.3312,0,-0.3369,-0.3369,-0.337,-0.3342,-0.3341,-0.334,-0.3339,-0.3315,-0.3315,-0.3315,0,0,0,0,0,0,0,0,0,0,0,0,0,-0.3181,-0.3183,-0.3311,-0.3312,-0.3313,-0.3369,-0.3369,-0.337,-0.3342,-0.3341,-0.334,-0.3338,-0.3314,-0.3315,-0.3316,0,0,0,0,0,0,0,0,0,0,0,0,0,-0.3235,-0.3184,-0.3311,-0.3309,-0.3309,-0.3369,-0.3369,-0.337,-0.3343,-0.3341,-0.3339,-0.3338,-0.3314,-0.3315,-0.3316,-0.3355,0,0,-0.3318,-0.3318,0,0,0,0,0,0,0,0,-0.3232,-0.3239,-0.3308,-0.3309,-0.331,-0.335,-0.3315,-0.3362,-0.3343,-0.3327,-0.3339,-0.3337,-0.3322,-0.3322,-0.3333,-0.3354,-0.3353,-0.3318,-0.3318,-0.3318,-0.3319,0,0,0,0,0,0,0,-0.3228,-0.3237,-0.3331,-0.3309,-0.3311,-0.3306,-0.3312,-0.3324,-0.3329,-0.3328,-0.3327,-0.3339,-0.3321,-0.3333,-0.3332,-0.3352,-0.3318,-0.3318,-0.3319,-0.3319,-0.3396,-0.3397,0,0,0,0,0,0,-0.323,-0.3233,-0.3329,-0.3333,-0.3269,-0.331,-0.3316,-0.3336,-0.3331,-0.333,-0.3341,-0.3338,-0.3333,-0.3332,-0.3331,-0.3371,-0.3318,-0.3319,-0.3319,-0.3394,-0.3396,-0.3398,0,0,0,0,0,0,-0.3227,-0.3238,-0.3327,-0.3286,-0.3297,-0.3315,-0.3337,-0.3338,-0.3343,-0.3342,-0.3339,-0.3344,-0.3331,-0.333,-0.3347,-0.337,-0.3319,-0.332,-0.3392,-0.3395,-0.3397,-0.3454,0,0,0,0,0,0,-0.3223,-0.3237,-0.3245,-0.3287,-0.33,-0.3366,-0.3339,-0.3341,-0.3355,-0.3352,-0.3344,-0.3341,-0.333,-0.3346,-0.3347,-0.337,-0.332,-0.339,-0.3393,-0.3396,-0.345,-0.3459,-0.3465,0,0,0,0,0,-0.3218,-0.324,-0.3245,-0.3256,-0.3313,-0.3367,-0.3374,-0.3377,-0.3357,-0.3371,-0.3365,-0.334,-0.3366,-0.3348,-0.3349,-0.3372,-0.3389,-0.3393,-0.3396,-0.3447,-0.3457,-0.3465,0,0,0,0,0,0,-0.3182,-0.3241,-0.3247,-0.3283,-0.3324,-0.3364,-0.3374,-0.3381,-0.339,-0.3378,-0.3364,-0.3362,-0.3387,-0.3376,-0.3357,-0.3405,-0.3373,-0.3377,-0.3411,-0.3421,-0.3428,-0.3421,-0.3321,0,0,0,0,0,-0.3183,-0.321,-0.3268,-0.3292,-0.3315,-0.3344,-0.3362,-0.3374,-0.3393,-0.3394,-0.3394,-0.3393,-0.3409,-0.3409,-0.3421,-0.3447,-0.3426,-0.3463,-0.3471,-0.3477,-0.3474,-0.348,-0.3487,-0.341,-0.341,-0.341,0,0,-0.317,-0.3208,-0.322,-0.3286,-0.331,-0.3358,-0.3349,-0.3386,-0.3419,-0.3392,-0.342,-0.3423,-0.3424,-0.3455,-0.3465,-0.3444,-0.3487,-0.3482,-0.3487,-0.348,-0.3484,-0.3491,-0.3498,-0.3413,-0.3412,-0.3412,0,0,-0.3171,-0.3199,-0.3227,-0.3272,-0.3329,-0.336,-0.3373,-0.3423,-0.3434,-0.3475,-0.3464,-0.3481,-0.3501,-0.351,-0.3515,-0.3573,-0.3531,-0.3575,-0.3601,-0.3608,-0.3613,-0.3618,-0.3592,-0.3594,-0.3573,-0.3573,-0.3573,0,-0.3152,-0.3202,-0.3242,-0.3292,-0.3326,-0.3362,-0.3406,-0.344,-0.3487,-0.3502,-0.3487,-0.3532,-0.3529,-0.357,-0.3586,-0.359,-0.3571,-0.3565,-0.3616,-0.362,-0.3624,-0.3596,-0.3598,-0.3576,-0.3576,-0.3575,-0.3575,0,-0.3183,-0.3226,-0.3248,-0.3322,-0.3368,-0.341,-0.3475,-0.3511,-0.3527,-0.3555,-0.3598,-0.3607,-0.3625,-0.3637,-0.3625,-0.3662,-0.3631,-0.3628,-0.3589,-0.3635,-0.3603,-0.3604,-0.3581,-0.358,-0.3579,-0.3578,0,0,-0.3128,-0.3245,-0.3251,-0.3288,-0.3386,-0.3425,-0.3494,-0.3563,-0.3592,-0.3636,-0.3667,-0.3706,-0.37,-0.3706,-0.3703,-0.3707,-0.3717,-0.3675,-0.3674,-0.3641,-0.3704,-0.3625,-0.3617,-0.3719,-0.372,-0.3721,-0.3666,0,-0.3133,-0.3217,-0.3283,-0.3355,-0.34,-0.3472,-0.3532,-0.3599,-0.3641,-0.3682,-0.3708,-0.3733,-0.3731,-0.373,-0.3744,-0.3726,-0.3722,-0.373,-0.367,-0.3668,-0.3586,-0.3617,-0.3488,-0.3424,-0.3666,-0.3666,-0.3666,0,-0.3136,-0.3195,-0.3265,-0.3371,-0.3396,-0.3445,-0.3534,-0.3594,-0.3676,-0.3706,-0.3748,-0.3763,-0.379,-0.3771,-0.3772,-0.3774,-0.374,-0.3723,-0.372,-0.3625,-0.3591,-0.3419,-0.3415,-0.3396,-0.3666,-0.3666,-0.3666,0,-0.306,-0.3178,-0.3224,-0.3263,-0.3392,-0.3427,-0.3488,-0.3584,-0.3636,-0.3705,-0.3738,-0.3781,-0.3792,-0.3781,-0.3759,-0.3759,-0.3741,-0.3735,-0.3633,-0.3626,-0.3492,-0.3472,-0.3453,-0.3725,-0.3725,-0.3725,-0.3726,0,-0.3034,-0.307,-0.3187,-0.3212,-0.3265,-0.3371,-0.3429,-0.3501,-0.3599,-0.3647,-0.3726,-0.376,-0.3795,-0.3799,-0.3764,-0.3698,-0.3745,-0.3634,-0.3613,-0.3508,-0.3491,-0.3448,-0.347,-0.3723,-0.3724,-0.3724,-0.3725,0,-0.2939,-0.3021,-0.3076,-0.3196,-0.3228,-0.3258,-0.3388,-0.3428,-0.354,-0.3602,-0.3623,-0.3739,-0.3741,-0.376,-0.3736,-0.3693,-0.3574,-0.3601,-0.3461,-0.3424,-0.3296,-0.3325,-0.3251,-0.3155,-0.3468,-0.3466,-0.3464,0,-0.2896,-0.2913,-0.3026,-0.3045,-0.3092,-0.3162,-0.3208,-0.3359,-0.3412,-0.3575,-0.3586,-0.3652,-0.3667,-0.3628,-0.3567,-0.349,-0.348,-0.3321,-0.3303,-0.3267,-0.3285,-0.3294,-0.3219,-0.3143,-0.3138,-0.3135,-0.3132,0,-0.2796,-0.2832,-0.2871,-0.2918,-0.2961,-0.3027,-0.3107,-0.3155,-0.3322,-0.3393,-0.3471,-0.3503,-0.3514,-0.3413,-0.3348,-0.3275,-0.3236,-0.3244,-0.325,-0.3063,-0.3028,-0.293,-0.3192,-0.3101,-0.3104,-0.3106,-0.3108,-0.3109,-0.2692,-0.269,-0.2735,-0.2765,-0.2814,-0.2853,-0.2852,-0.2963,-0.3031,-0.3111,-0.3256,-0.328,-0.3271,-0.3168,-0.3102,-0.2957,-0.3009,-0.287,-0.2915,-0.2934,-0.2822,-0.3002,-0.2868,-0.2869,-0.2871,-0.2872,-0.2873,0,-0.2551,-0.2561,-0.258,-0.2607,-0.2589,-0.2678,-0.2743,-0.2716,-0.2727,-0.2868,-0.2917,-0.2996,-0.2896,-0.2901,-0.2799,-0.268,-0.2601,-0.2613,-0.2606,-0.2547,-0.273,-0.2697,-0.2467,-0.2467,-0.2467,-0.2467,-0.2467,-0.2467,-0.2476,-0.2433,-0.2447,-0.2366,-0.2377,-0.2302,-0.23,-0.2292,-0.2349,-0.2405,-0.2521,-0.2679,-0.2722,-0.2872,-0.2713,-0.2572,-0.2496,-0.2413,-0.2439,-0.2603,-0.2632,-0.2659,-0.2633,-0.2393,-0.2393,-0.2155,-0.2154,-0.2153]},{"header":{"parameterUnit":"m.s-1","parameterCategory":2,"la1":30.2991,"la2":30.254,"lo1":-89.0895,"lo2":-89.0444,"dy":0.0017,"dx":0.0017,"nx":28,"ny":28,"refTime":"2025-01-11T09:00:00:Z","depth":"0","parameterNumber":3,"parameterNumberName":"V-component_of_CURRENTS"},"data":[0,0,0,0,0,0,0,0,0,0,0,0,0,0,0,0,0,0,0,0,0,0,0,0,0,0,0,0,0,0,0,0,0,0,0,0,0,0,0,0,0,0,0,0,0,0,0,0,0,0,0,0,0,0,0,0,0,0,-0.0269,-0.0267,0,-0.014,-0.0138,-0.0137,-0.0048,-0.0047,-0.0047,-0.0046,0.0117,0.012,0.0124,0,0,0,0,0,0,0,0,0,0,0,0,0,-0.0366,-0.0365,-0.0269,-0.0267,-0.0266,-0.014,-0.0138,-0.0136,-0.0048,-0.0047,-0.0047,-0.0046,0.0115,0.012,0.0125,0,0,0,0,0,0,0,0,0,0,0,0,0,-0.0288,-0.0365,-0.0269,-0.0208,-0.0201,-0.0141,-0.0138,-0.0136,-0.0048,-0.0047,-0.0046,-0.0046,0.0114,0.012,0.0125,0.0146,0,0,0.0143,0.0146,0,0,0,0,0,0,0,0,-0.0293,-0.0284,-0.0218,-0.0212,-0.0205,-0.0111,-0.0113,-0.004,-0.0048,-0.0104,-0.0046,-0.0045,0.0042,0.0054,0.0079,0.0154,0.0161,0.0144,0.0147,0.015,0.0151,0,0,0,0,0,0,0,-0.0298,-0.0289,-0.0216,-0.0217,-0.0208,-0.0163,-0.0151,-0.0098,-0.0035,-0.0099,-0.0093,-0.0082,0.0046,0.0073,0.0083,0.0163,0.0143,0.0149,0.0152,0.0154,0.0279,0.0279,0,0,0,0,0,0,-0.0322,-0.0294,-0.022,-0.0212,-0.025,-0.0162,-0.0149,-0.014,-0.0036,-0.002,-0.0083,-0.0078,0.0062,0.0076,0.0089,0.0121,0.015,0.0155,0.0158,0.028,0.0279,0.0279,0,0,0,0,0,0,-0.0325,-0.0317,-0.0225,-0.0252,-0.0237,-0.0162,-0.0152,-0.0138,-0.0112,-0.0024,-0.0007,-0.0071,0.0064,0.0081,0.0133,0.0128,0.0158,0.0163,0.028,0.0279,0.0279,0.0183,0,0,0,0,0,0,-0.0328,-0.0319,-0.0324,-0.0254,-0.0236,-0.0203,-0.0152,-0.0136,-0.0107,-0.01,-0.0009,0.0008,0.0065,0.0124,0.0139,0.0136,0.0167,0.028,0.028,0.0279,0.0187,0.018,0.0174,0,0,0,0,0,-0.0332,-0.0347,-0.0325,-0.0316,-0.0245,-0.0204,-0.0191,-0.0133,-0.0107,-0.0105,-0.0039,0.0005,0.0133,0.0128,0.0146,0.0145,0.028,0.028,0.0279,0.019,0.0181,0.0174,0,0,0,0,0,0,-0.0393,-0.0338,-0.0312,-0.0309,-0.0265,-0.019,-0.0183,-0.0142,-0.0088,-0.008,0.0004,0.0025,0.0067,0.0118,0.0111,0.018,0.0213,0.0216,0.0139,0.0132,0.0125,0.011,0.0172,0,0,0,0,0,-0.041,-0.0405,-0.0344,-0.0342,-0.0326,-0.0256,-0.0233,-0.0194,-0.0136,-0.0111,-0.0047,0.0022,0.0079,0.0113,0.0168,0.0207,0.0264,0.0218,0.0211,0.0205,0.0205,0.0286,0.0287,0.0278,0.0278,0.0278,0,0,-0.0432,-0.0402,-0.0399,-0.0355,-0.0315,-0.0303,-0.024,-0.0214,-0.0197,-0.0102,-0.0065,-0.0001,0.0083,0.0126,0.0149,0.0169,0.0236,0.0205,0.0199,0.0203,0.0286,0.0287,0.0288,0.0278,0.0278,0.0278,0,0,-0.0483,-0.045,-0.0466,-0.0436,-0.039,-0.0345,-0.0344,-0.0275,-0.0237,-0.0194,-0.0122,-0.0062,0.0021,0.0086,0.0129,0.0121,0.0195,0.0135,0.0097,0.0175,0.0177,0.0179,0.024,0.0249,0.0136,0.0136,0.0136,0,-0.0514,-0.0521,-0.0465,-0.0471,-0.0455,-0.0372,-0.0383,-0.0333,-0.0255,-0.0223,-0.0199,-0.006,0.0005,0.0076,0.0074,0.0107,0.0158,0.0116,0.0166,0.0169,0.0173,0.0237,0.0247,0.0131,0.0132,0.0132,0.0133,0,-0.0571,-0.0577,-0.0585,-0.0563,-0.0538,-0.0534,-0.0462,-0.043,-0.0375,-0.0314,-0.0238,-0.014,-0.0056,-0.0027,0.0023,0.0082,0.0111,0.0143,0.0181,0.0168,0.0236,0.0248,0.0125,0.0126,0.0128,0.0129,0,0,-0.0637,-0.063,-0.0631,-0.0642,-0.0587,-0.0575,-0.0544,-0.0487,-0.046,-0.0373,-0.0325,-0.022,-0.0156,-0.0103,-0.0026,0.0047,0.0111,0.0097,0.0103,0.015,0.0275,0.0334,0.0354,0.0152,0.0154,0.0156,0.0306,0,-0.0699,-0.0747,-0.0713,-0.0745,-0.0761,-0.0681,-0.0658,-0.0591,-0.0514,-0.0447,-0.0323,-0.0251,-0.0186,-0.0145,-0.0064,0.0072,0.0142,0.0067,0.0288,0.0295,0.0343,0.0371,0.0409,0.0551,0.0319,0.0321,0.0323,0,-0.0762,-0.0786,-0.0839,-0.0838,-0.0835,-0.0834,-0.0776,-0.0744,-0.0619,-0.0557,-0.0453,-0.0347,-0.0222,-0.017,0.0051,-0.0001,0.0121,0.0228,0.0237,0.0337,0.0379,0.0531,0.0584,0.0807,0.0343,0.0341,0.034,0,-0.084,-0.0869,-0.0918,-0.0918,-0.09,-0.09,-0.0877,-0.0779,-0.0749,-0.0619,-0.0573,-0.0406,-0.0316,-0.0143,0.008,0.0065,0.033,0.0339,0.0509,0.0514,0.0615,0.0626,0.0906,0.049,0.049,0.0489,0.0489,0,-0.0917,-0.0953,-0.0964,-0.0992,-0.1038,-0.0985,-0.0994,-0.0938,-0.085,-0.0811,-0.064,-0.0561,-0.0303,-0.0114,0.007,0.0339,0.0326,0.0514,0.0566,0.0581,0.0587,0.0841,0.0914,0.0495,0.0494,0.0493,0.0492,0,-0.0993,-0.0999,-0.1062,-0.1075,-0.1082,-0.1112,-0.1096,-0.1091,-0.099,-0.0932,-0.0894,-0.0666,-0.0409,-0.0139,0.0168,0.0331,0.0715,0.0672,0.0667,0.0715,0.1058,0.1121,0.1432,0.1543,0.0871,0.0873,0.0876,0,-0.1038,-0.108,-0.114,-0.1184,-0.1198,-0.1228,-0.1244,-0.1174,-0.1156,-0.0991,-0.0965,-0.0703,-0.0496,-0.0013,0.0334,0.0689,0.0846,0.0922,0.0904,0.1104,0.1213,0.1256,0.1328,0.0996,0.0999,0.1001,0.1003,0,-0.1119,-0.114,-0.1191,-0.1293,-0.1341,-0.1384,-0.1394,-0.1404,-0.1299,-0.1217,-0.1053,-0.087,-0.0376,0.0069,0.0549,0.0762,0.1081,0.098,0.1209,0.1358,0.1405,0.1525,0.0854,0.1025,0.1023,0.1021,0.102,0.1019,-0.1168,-0.1229,-0.1303,-0.1395,-0.146,-0.1518,-0.1547,-0.1523,-0.1483,-0.1332,-0.1143,-0.0832,-0.0164,0.0531,0.0791,0.135,0.1281,0.1504,0.1569,0.1599,0.1703,0.1069,0.1283,0.1283,0.1282,0.1282,0.1281,0,-0.1225,-0.1295,-0.1397,-0.15,-0.1589,-0.1593,-0.1628,-0.1619,-0.157,-0.1373,-0.1172,-0.046,0.0208,0.0826,0.1617,0.1922,0.1977,0.2075,0.2159,0.2206,0.1683,0.1687,0.1975,0.1975,0.1975,0.1975,0.1974,0.1974,-0.1255,-0.1365,-0.1424,-0.1583,-0.1655,-0.1732,-0.175,-0.1705,-0.1577,-0.1232,-0.0847,-0.0532,0.0387,0.1685,0.2434,0.2503,0.2737,0.272,0.2845,0.2498,0.2449,0.2403,0.2431,0.287,0.2871,0.335,0.3355,0.3358]}],[{"header":{"parameterUnit":"m.s-1","parameterCategory":2,"la1":30.2991,"la2":30.254,"lo1":-89.0895,"lo2":-89.0444,"dy":0.0017,"dx":0.0017,"nx":28,"ny":28,"refTime":"2025-01-11T09:00:00:Z","depth":"2","parameterNumber":2,"parameterNumberName":"U-component_of_CURRENTS"},"data":[0,0,0,0,0,0,0,0,0,0,0,0,0,0,0,0,0,0,0,0,0,0,0,0,0,0,0,0,0,0,0,0,0,0,0,0,0,0,0,0,0,0,0,0,0,0,0,0,0,0,0,0,0,0,0,0,0,0,-0.3038,-0.3039,0,-0.3092,-0.3093,-0.3093,-0.3074,-0.3074,-0.3073,-0.3072,-0.3058,-0.3059,-0.3059,0,0,0,0,0,0,0,0,0,0,0,0,0,-0.2919,-0.2921,-0.3038,-0.3039,-0.304,-0.3092,-0.3093,-0.3093,-0.3075,-0.3074,-0.3072,-0.3071,-0.3058,-0.3058,-0.3059,0,0,0,0,0,0,0,0,0,0,0,0,0,-0.2968,-0.2921,-0.3038,-0.3039,-0.304,-0.3092,-0.3093,-0.3093,-0.3075,-0.3074,-0.3072,-0.3071,-0.3058,-0.3058,-0.3059,-0.309,0,0,-0.3061,-0.3062,0,0,0,0,0,0,0,0,-0.2966,-0.2972,-0.3038,-0.3039,-0.304,-0.3078,-0.3046,-0.309,-0.3075,-0.3058,-0.3072,-0.307,-0.3062,-0.3062,-0.3071,-0.309,-0.3089,-0.3061,-0.3062,-0.3062,-0.3062,0,0,0,0,0,0,0,-0.2962,-0.297,-0.3056,-0.3039,-0.3041,-0.3038,-0.3043,-0.3054,-0.3063,-0.306,-0.3059,-0.3071,-0.3061,-0.3071,-0.3071,-0.3089,-0.3061,-0.3062,-0.3062,-0.3063,-0.3138,-0.314,0,0,0,0,0,0,-0.2964,-0.2967,-0.3054,-0.3058,-0.3003,-0.3041,-0.3047,-0.3065,-0.3064,-0.3064,-0.3072,-0.307,-0.307,-0.307,-0.307,-0.3115,-0.3062,-0.3063,-0.3063,-0.3137,-0.3139,-0.314,0,0,0,0,0,0,-0.2961,-0.2972,-0.3052,-0.3016,-0.3026,-0.3045,-0.3065,-0.3067,-0.3076,-0.3075,-0.3073,-0.308,-0.3069,-0.3069,-0.3088,-0.3114,-0.3063,-0.3064,-0.3135,-0.3137,-0.3139,-0.3199,0,0,0,0,0,0,-0.2958,-0.297,-0.2979,-0.3016,-0.3028,-0.309,-0.3067,-0.3069,-0.3087,-0.3084,-0.3081,-0.3079,-0.3068,-0.3088,-0.3089,-0.3114,-0.3064,-0.3133,-0.3136,-0.3139,-0.3195,-0.3203,-0.321,0,0,0,0,0,-0.2953,-0.2975,-0.298,-0.299,-0.3042,-0.3092,-0.3098,-0.3104,-0.3089,-0.3104,-0.3101,-0.3079,-0.3107,-0.309,-0.3091,-0.3116,-0.3131,-0.3135,-0.3138,-0.3192,-0.3202,-0.321,0,0,0,0,0,0,-0.2925,-0.2977,-0.2982,-0.3017,-0.3055,-0.309,-0.3102,-0.311,-0.3122,-0.3114,-0.3101,-0.31,-0.3128,-0.3118,-0.3098,-0.3148,-0.3115,-0.3119,-0.3156,-0.3165,-0.3172,-0.3168,-0.3065,0,0,0,0,0,-0.2926,-0.2952,-0.3003,-0.3027,-0.3049,-0.3076,-0.3094,-0.3107,-0.3126,-0.3129,-0.3131,-0.3133,-0.3147,-0.315,-0.3161,-0.3188,-0.3169,-0.3206,-0.3213,-0.322,-0.3218,-0.3224,-0.3231,-0.3152,-0.3152,-0.3152,0,0,-0.2917,-0.2951,-0.2962,-0.3023,-0.3046,-0.3091,-0.3082,-0.312,-0.3152,-0.3127,-0.3159,-0.3162,-0.3162,-0.3195,-0.3206,-0.3185,-0.3232,-0.3224,-0.323,-0.3225,-0.3228,-0.3236,-0.3242,-0.3154,-0.3154,-0.3154,0,0,-0.2922,-0.2948,-0.2976,-0.3017,-0.3071,-0.3098,-0.3112,-0.316,-0.3173,-0.3214,-0.3204,-0.3223,-0.3243,-0.3251,-0.3256,-0.3313,-0.3276,-0.3317,-0.3346,-0.3352,-0.3358,-0.3363,-0.3343,-0.3346,-0.3315,-0.3316,-0.3316,0,-0.2909,-0.2954,-0.299,-0.3037,-0.3069,-0.3104,-0.3146,-0.3178,-0.3224,-0.3241,-0.3229,-0.3274,-0.3272,-0.3311,-0.3328,-0.333,-0.3315,-0.331,-0.3361,-0.3365,-0.337,-0.3347,-0.335,-0.3319,-0.3318,-0.3318,-0.3318,0,-0.2941,-0.2981,-0.3003,-0.3071,-0.3114,-0.3156,-0.3215,-0.3252,-0.327,-0.3297,-0.3342,-0.3351,-0.337,-0.3381,-0.3369,-0.3406,-0.338,-0.3373,-0.3334,-0.3381,-0.3355,-0.3356,-0.3324,-0.3322,-0.3321,-0.3321,0,0,-0.2895,-0.3002,-0.3009,-0.3044,-0.3135,-0.3171,-0.3239,-0.3304,-0.3334,-0.3379,-0.3412,-0.345,-0.3447,-0.3452,-0.3449,-0.3454,-0.3469,-0.3424,-0.3423,-0.3396,-0.3461,-0.3383,-0.3376,-0.3469,-0.347,-0.347,-0.3428,0,-0.2903,-0.2982,-0.3042,-0.3111,-0.3154,-0.3221,-0.3279,-0.3343,-0.3384,-0.3427,-0.3452,-0.3479,-0.3477,-0.348,-0.3494,-0.3476,-0.3476,-0.3479,-0.3426,-0.3424,-0.3342,-0.3377,-0.3116,-0.3052,-0.3429,-0.3429,-0.3429,0,-0.2909,-0.2964,-0.3031,-0.313,-0.3154,-0.3203,-0.3288,-0.3345,-0.3423,-0.3455,-0.3499,-0.3514,-0.3543,-0.3524,-0.3529,-0.3529,-0.35,-0.3482,-0.348,-0.3385,-0.3348,-0.3068,-0.3039,-0.3431,-0.3431,-0.3431,-0.3431,0,-0.2842,-0.2952,-0.2997,-0.3033,-0.3154,-0.319,-0.3248,-0.3341,-0.3389,-0.346,-0.3494,-0.3538,-0.3551,-0.3543,-0.3523,-0.3521,-0.3508,-0.3499,-0.3402,-0.3395,-0.315,-0.312,-0.3494,-0.3494,-0.3494,-0.3494,-0.3494,0,-0.2821,-0.2856,-0.2966,-0.299,-0.3043,-0.3142,-0.3201,-0.327,-0.3364,-0.3408,-0.3488,-0.3521,-0.3557,-0.3562,-0.3531,-0.3468,-0.3516,-0.3406,-0.3384,-0.3164,-0.3137,-0.345,-0.3445,-0.3492,-0.3493,-0.3493,-0.3493,0,-0.2734,-0.2811,-0.2865,-0.2978,-0.301,-0.304,-0.3165,-0.3202,-0.3313,-0.3371,-0.3394,-0.3504,-0.3509,-0.353,-0.3509,-0.3466,-0.3417,-0.3381,-0.3112,-0.306,-0.3293,-0.3292,-0.326,-0.3257,-0.3255,-0.3253,-0.3251,0,-0.2696,-0.2713,-0.2821,-0.2839,-0.2885,-0.2954,-0.2997,-0.3141,-0.3188,-0.3345,-0.3352,-0.3421,-0.3429,-0.3395,-0.3323,-0.325,-0.3344,-0.2974,-0.2931,-0.329,-0.3272,-0.3275,-0.3278,-0.2622,-0.2615,-0.2609,-0.2605,0,-0.2603,-0.2639,-0.2676,-0.2721,-0.2762,-0.2821,-0.2897,-0.294,-0.3097,-0.3162,-0.3231,-0.3257,-0.3258,-0.3082,-0.3022,-0.2939,-0.2968,-0.286,-0.329,-0.2739,-0.2689,-0.2672,-0.2694,-0.2555,-0.256,-0.2564,-0.2567,-0.2568,-0.2509,-0.2507,-0.2549,-0.2576,-0.2621,-0.2651,-0.2647,-0.2743,-0.2799,-0.2849,-0.2993,-0.2944,-0.2934,-0.2711,-0.259,-0.2494,-0.2693,-0.2556,-0.2572,-0.2595,-0.2546,-0.2496,-0.2315,-0.2319,-0.2322,-0.2324,-0.2327,0,-0.2375,-0.2384,-0.2401,-0.2423,-0.24,-0.2487,-0.2539,-0.2492,-0.2485,-0.2565,-0.2589,-0.2347,-0.2255,-0.2257,-0.2046,-0.2017,-0.1981,-0.192,-0.1866,-0.1916,-0.196,-0.1879,-0.1471,-0.1469,-0.1467,-0.1464,0,0,-0.2303,-0.2259,-0.2269,-0.2184,-0.2195,-0.2112,-0.2104,-0.2057,-0.2062,-0.1982,-0.1957,-0.2128,-0.2191,-0.1828,-0.1745,-0.1581,-0.1726,-0.1496,-0.218,-0.2165,-0.2206,-0.2322,-0.2253,0,0,0,0,0]},{"header":{"parameterUnit":"m.s-1","parameterCategory":2,"la1":30.2991,"la2":30.254,"lo1":-89.0895,"lo2":-89.0444,"dy":0.0017,"dx":0.0017,"nx":28,"ny":28,"refTime":"2025-01-11T09:00:00:Z","depth":"2","parameterNumber":3,"parameterNumberName":"V-component_of_CURRENTS"},"data":[0,0,0,0,0,0,0,0,0,0,0,0,0,0,0,0,0,0,0,0,0,0,0,0,0,0,0,0,0,0,0,0,0,0,0,0,0,0,0,0,0,0,0,0,0,0,0,0,0,0,0,0,0,0,0,0,0,0,-0.0244,-0.0243,0,-0.0123,-0.0121,-0.012,-0.0036,-0.0036,-0.0036,-0.0035,0.0117,0.0121,0.0125,0,0,0,0,0,0,0,0,0,0,0,0,0,-0.0335,-0.0334,-0.0244,-0.0243,-0.0242,-0.0123,-0.0121,-0.0119,-0.0037,-0.0036,-0.0035,-0.0035,0.0116,0.012,0.0125,0,0,0,0,0,0,0,0,0,0,0,0,0,-0.0261,-0.0334,-0.0245,-0.0187,-0.0181,-0.0123,-0.0121,-0.0119,-0.0037,-0.0036,-0.0035,-0.0035,0.0115,0.012,0.0125,0.0146,0,0,0.0142,0.0145,0,0,0,0,0,0,0,0,-0.0266,-0.0258,-0.0197,-0.0191,-0.0184,-0.0096,-0.0097,-0.0029,-0.0037,-0.009,-0.0035,-0.0034,0.0047,0.0058,0.0082,0.0153,0.016,0.0143,0.0146,0.0148,0.015,0,0,0,0,0,0,0,-0.0271,-0.0262,-0.0194,-0.0196,-0.0188,-0.0144,-0.0133,-0.0084,-0.0024,-0.0085,-0.0079,-0.0069,0.0051,0.0076,0.0086,0.0162,0.0142,0.0147,0.0151,0.0153,0.0273,0.0273,0,0,0,0,0,0,-0.0294,-0.0268,-0.0198,-0.0191,-0.0226,-0.0143,-0.0131,-0.0123,-0.0025,-0.0011,-0.0069,-0.0065,0.0067,0.008,0.0092,0.0123,0.0148,0.0153,0.0157,0.0273,0.0273,0.0273,0,0,0,0,0,0,-0.0296,-0.0289,-0.0203,-0.0228,-0.0214,-0.0143,-0.0135,-0.0121,-0.0097,-0.0014,0.0002,-0.0059,0.0068,0.0084,0.0134,0.013,0.0156,0.0161,0.0273,0.0273,0.0273,0.0185,0,0,0,0,0,0,-0.03,-0.0291,-0.0296,-0.023,-0.0213,-0.0182,-0.0135,-0.012,-0.0092,-0.0085,0.0,0.0015,0.007,0.0125,0.0139,0.0138,0.0165,0.0273,0.0273,0.0273,0.0188,0.0182,0.0177,0,0,0,0,0,-0.0303,-0.0318,-0.0297,-0.0289,-0.0222,-0.0183,-0.0171,-0.0116,-0.0093,-0.009,-0.0028,0.0013,0.0134,0.0129,0.0146,0.0146,0.0273,0.0273,0.0273,0.0191,0.0183,0.0177,0,0,0,0,0,0,-0.0361,-0.0309,-0.0285,-0.0283,-0.0242,-0.017,-0.0164,-0.0125,-0.0073,-0.0067,0.0013,0.0032,0.0073,0.012,0.0113,0.018,0.021,0.0213,0.0142,0.0135,0.013,0.0114,0.017,0,0,0,0,0,-0.0378,-0.0374,-0.0315,-0.0315,-0.0299,-0.0233,-0.0211,-0.0174,-0.0119,-0.0095,-0.0035,0.003,0.0085,0.0117,0.0169,0.0206,0.0259,0.0218,0.0212,0.0207,0.0205,0.0282,0.0283,0.0272,0.0272,0.0272,0,0,-0.04,-0.0372,-0.0368,-0.0327,-0.0289,-0.0277,-0.0218,-0.0193,-0.0176,-0.0087,-0.0051,0.0009,0.0089,0.013,0.0153,0.0171,0.0235,0.0206,0.0201,0.0203,0.0282,0.0283,0.0284,0.0272,0.0272,0.0272,0,0,-0.0449,-0.0418,-0.0433,-0.0404,-0.036,-0.0317,-0.0316,-0.025,-0.0214,-0.0173,-0.0104,-0.0046,0.0033,0.0095,0.0136,0.0131,0.0199,0.0144,0.0109,0.0183,0.0184,0.0186,0.0242,0.025,0.0146,0.0146,0.0146,0,-0.0479,-0.0485,-0.0432,-0.0437,-0.0421,-0.0343,-0.0353,-0.0305,-0.023,-0.02,-0.0177,-0.0044,0.0018,0.0088,0.0087,0.0118,0.0165,0.0126,0.0175,0.0178,0.0182,0.0239,0.0248,0.0142,0.0142,0.0142,0.0143,0,-0.0533,-0.0538,-0.0545,-0.0524,-0.05,-0.0496,-0.0427,-0.0395,-0.0344,-0.0285,-0.0212,-0.0118,-0.0038,-0.0009,0.0039,0.0097,0.0121,0.0153,0.0188,0.0177,0.0238,0.0249,0.0135,0.0137,0.0138,0.0139,0,0,-0.0597,-0.0589,-0.059,-0.0601,-0.0546,-0.0535,-0.0505,-0.045,-0.0426,-0.0341,-0.0297,-0.0193,-0.0132,-0.0082,-0.0007,0.0063,0.0125,0.011,0.0116,0.0157,0.0276,0.0327,0.0345,0.0164,0.0166,0.0167,0.0304,0,-0.0656,-0.0701,-0.0668,-0.0698,-0.0713,-0.0636,-0.0614,-0.055,-0.0478,-0.0415,-0.0294,-0.0226,-0.0161,-0.0122,-0.0043,0.0086,0.0153,0.0084,0.0288,0.0294,0.0334,0.036,0.0297,0.0416,0.0315,0.0317,0.0319,0,-0.0717,-0.0739,-0.0788,-0.0788,-0.0785,-0.0785,-0.0732,-0.0701,-0.0583,-0.0524,-0.0424,-0.0324,-0.0203,-0.015,0.0061,0.0012,0.013,0.0231,0.024,0.0328,0.0367,0.0415,0.0442,0.0339,0.0338,0.0336,0.0335,0,-0.0793,-0.082,-0.0867,-0.0866,-0.0849,-0.0851,-0.0829,-0.0737,-0.071,-0.0587,-0.0546,-0.0385,-0.03,-0.0132,0.0081,0.007,0.0318,0.0331,0.0488,0.0492,0.0501,0.0503,0.0476,0.0475,0.0475,0.0475,0.0474,0,-0.0867,-0.0902,-0.0912,-0.0939,-0.0986,-0.0934,-0.0946,-0.0894,-0.0811,-0.0777,-0.0613,-0.054,-0.029,-0.0111,0.0067,0.0321,0.0311,0.0491,0.0539,0.0468,0.0466,0.0449,0.0444,0.048,0.0479,0.0478,0.0477,0,-0.0942,-0.0947,-0.1008,-0.1021,-0.1029,-0.106,-0.1047,-0.1045,-0.0951,-0.0898,-0.0863,-0.0648,-0.0407,-0.0146,0.0147,0.0306,0.0539,0.0629,0.0524,0.0558,0.066,0.0649,0.0806,0.0809,0.0812,0.0814,0.0816,0,-0.0985,-0.1026,-0.1085,-0.1129,-0.1143,-0.1174,-0.1192,-0.1126,-0.1112,-0.0959,-0.0938,-0.0693,-0.05,-0.0044,0.0278,0.0614,0.062,0.0749,0.0725,0.0667,0.0698,0.0683,0.0669,0.0694,0.0695,0.0695,0.0696,0,-0.1066,-0.1086,-0.1136,-0.1236,-0.1284,-0.1328,-0.1341,-0.1353,-0.1254,-0.1181,-0.1033,-0.0864,-0.0409,-0.0038,0.0415,0.0601,0.069,0.0773,0.0762,0.0621,0.0574,0.0599,0.0587,0.0701,0.07,0.07,0.07,0.0699,-0.1115,-0.1175,-0.1247,-0.1337,-0.1402,-0.146,-0.149,-0.1469,-0.1436,-0.1296,-0.1126,-0.0843,-0.046,0.0172,0.0492,0.079,0.0787,0.0851,0.0844,0.0838,0.0801,0.0762,0.0916,0.0917,0.0918,0.0918,0.0919,0,-0.1172,-0.1241,-0.134,-0.1441,-0.1528,-0.1535,-0.1572,-0.1557,-0.1514,-0.1337,-0.1154,-0.0732,-0.0291,0.0114,0.0585,0.0874,0.084,0.0914,0.0803,0.0797,0.0791,0.0748,0.0852,0.0853,0.0854,0.0854,0,0,-0.1203,-0.1309,-0.1366,-0.1521,-0.1593,-0.1668,-0.1688,-0.1631,-0.1511,-0.1328,-0.1113,-0.08,-0.03,0.0017,0.0381,0.0628,0.0634,0.0648,0.067,0.0489,0.048,0.0725,0.0649,0,0,0,0,0]}],[{"header":{"parameterUnit":"m.s-1","parameterCategory":2,"la1":30.2991,"la2":30.254,"lo1":-89.0895,"lo2":-89.0444,"dy":0.0017,"dx":0.0017,"nx":28,"ny":28,"refTime":"2025-01-11T09:00:00:Z","depth":"4","parameterNumber":2,"parameterNumberName":"U-component_of_CURRENTS"},"data":[0,0,0,0,0,0,0,0,0,0,0,0,0,0,0,0,0,0,0,0,0,0,0,0,0,0,0,0,0,0,0,0,0,0,0,0,0,0,0,0,0,0,0,0,0,0,0,0,0,0,0,0,0,0,0,0,0,0,-0.2069,-0.207,0,-0.2162,-0.2163,-0.2164,-0.222,-0.222,-0.2221,-0.2221,-0.2302,-0.2304,-0.2306,0,0,0,0,0,0,0,0,0,0,0,0,0,-0.1938,-0.194,-0.2069,-0.2071,-0.2072,-0.2162,-0.2163,-0.2164,-0.2219,-0.222,-0.2221,-0.2221,-0.2302,-0.2304,-0.2306,0,0,0,0,0,0,0,0,0,0,0,0,0,-0.2007,-0.1941,-0.2069,-0.2112,-0.2117,-0.2162,-0.2163,-0.2164,-0.2219,-0.222,-0.2221,-0.2221,-0.2301,-0.2304,-0.2306,-0.2307,0,0,-0.2314,-0.2315,0,0,0,0,0,0,0,0,-0.2003,-0.2012,-0.2105,-0.2109,-0.2115,-0.2182,-0.2147,-0.2212,-0.2219,-0.2178,-0.2221,-0.2222,-0.2262,-0.2268,-0.228,-0.2311,-0.2315,-0.2314,-0.2316,-0.2317,-0.2318,0,0,0,0,0,0,0,-0.1998,-0.2008,-0.2104,-0.2106,-0.2112,-0.2127,-0.2137,-0.2159,-0.2213,-0.2182,-0.2187,-0.22,-0.2265,-0.2278,-0.2283,-0.2316,-0.2314,-0.2316,-0.2318,-0.2319,-0.2449,-0.245,0,0,0,0,0,0,-0.1991,-0.2004,-0.2101,-0.2107,-0.2063,-0.2129,-0.214,-0.2158,-0.2213,-0.2223,-0.22,-0.2203,-0.2273,-0.228,-0.2286,-0.2384,-0.2317,-0.2319,-0.2321,-0.2447,-0.2449,-0.2451,0,0,0,0,0,0,-0.1988,-0.1999,-0.2097,-0.2059,-0.2072,-0.213,-0.215,-0.2159,-0.221,-0.2227,-0.2237,-0.2245,-0.2274,-0.2282,-0.2343,-0.2384,-0.232,-0.2323,-0.2444,-0.2447,-0.245,-0.252,0,0,0,0,0,0,-0.1984,-0.1998,-0.2025,-0.2058,-0.2075,-0.215,-0.215,-0.2161,-0.2216,-0.2222,-0.2268,-0.2274,-0.2275,-0.2339,-0.2345,-0.2386,-0.2325,-0.2442,-0.2446,-0.2449,-0.2515,-0.2525,-0.2533,0,0,0,0,0,-0.1979,-0.2009,-0.2025,-0.2038,-0.2104,-0.2152,-0.2163,-0.2203,-0.2218,-0.225,-0.2283,-0.2275,-0.2366,-0.2343,-0.235,-0.2392,-0.244,-0.2445,-0.2449,-0.2511,-0.2523,-0.2533,0,0,0,0,0,0,-0.1968,-0.2019,-0.2037,-0.2083,-0.2127,-0.2163,-0.22,-0.2225,-0.2276,-0.2292,-0.2301,-0.231,-0.2378,-0.2376,-0.2351,-0.244,-0.2401,-0.2407,-0.2446,-0.2457,-0.2466,-0.2459,-0.2327,0,0,0,0,0,-0.1977,-0.2014,-0.206,-0.21,-0.2126,-0.2169,-0.22,-0.2231,-0.2272,-0.2298,-0.2331,-0.2364,-0.2394,-0.242,-0.2447,-0.2497,-0.2476,-0.2529,-0.2537,-0.2545,-0.2545,-0.2553,-0.2562,-0.2465,-0.2465,-0.2465,0,0,-0.1983,-0.2017,-0.2039,-0.2101,-0.2138,-0.2186,-0.2191,-0.2252,-0.23,-0.2297,-0.238,-0.2401,-0.2416,-0.2474,-0.2504,-0.2483,-0.2563,-0.255,-0.2557,-0.2552,-0.2558,-0.2567,-0.2575,-0.2468,-0.2467,-0.2467,0,0,-0.2003,-0.2047,-0.2083,-0.2126,-0.2194,-0.2223,-0.2249,-0.2312,-0.2353,-0.2425,-0.2434,-0.2481,-0.2538,-0.2553,-0.2565,-0.2638,-0.261,-0.2655,-0.2696,-0.2705,-0.2712,-0.2719,-0.2702,-0.2706,-0.2658,-0.2659,-0.2659,0,-0.2013,-0.2062,-0.2102,-0.215,-0.2193,-0.2244,-0.2295,-0.2342,-0.242,-0.2454,-0.2466,-0.2555,-0.2571,-0.2625,-0.2652,-0.2659,-0.265,-0.2653,-0.2715,-0.2721,-0.2726,-0.2707,-0.2711,-0.2662,-0.2662,-0.2662,-0.2661,0,-0.2048,-0.2106,-0.2134,-0.221,-0.2261,-0.2316,-0.2382,-0.2445,-0.2499,-0.2537,-0.2621,-0.2648,-0.2694,-0.2713,-0.2707,-0.276,-0.2736,-0.2725,-0.2683,-0.274,-0.2717,-0.2719,-0.2668,-0.2667,-0.2666,-0.2665,0,0,-0.2018,-0.2136,-0.215,-0.2196,-0.23,-0.2339,-0.2431,-0.2511,-0.2564,-0.2645,-0.2704,-0.2768,-0.2784,-0.2797,-0.2803,-0.2815,-0.2844,-0.2792,-0.2791,-0.2767,-0.285,-0.2672,-0.2657,-0.2847,-0.2848,-0.2849,-0.2817,0,-0.2036,-0.2125,-0.2187,-0.228,-0.2329,-0.2412,-0.2486,-0.2569,-0.2637,-0.2707,-0.2751,-0.281,-0.2816,-0.2841,-0.2861,-0.2848,-0.2856,-0.2853,-0.2806,-0.2804,-0.2632,-0.2656,-0.2852,-0.2819,-0.2819,-0.282,-0.282,0,-0.2041,-0.2103,-0.2195,-0.2312,-0.2343,-0.2413,-0.253,-0.2601,-0.2705,-0.2758,-0.2828,-0.2859,-0.2908,-0.2895,-0.2914,-0.2914,-0.2891,-0.2875,-0.2873,-0.2681,-0.263,-0.2752,-0.2824,-0.2824,-0.2823,-0.2823,-0.2823,0,-0.1973,-0.2104,-0.2176,-0.2219,-0.236,-0.2425,-0.2502,-0.2618,-0.2677,-0.2785,-0.2832,-0.2899,-0.2931,-0.2932,-0.2919,-0.292,-0.2912,-0.2902,-0.2721,-0.2708,-0.2847,-0.2841,-0.2905,-0.2905,-0.2905,-0.2905,-0.2906,0,-0.1942,-0.2004,-0.2157,-0.2194,-0.2282,-0.2395,-0.2491,-0.2577,-0.2691,-0.2738,-0.2847,-0.2874,-0.2945,-0.2953,-0.2928,-0.2822,-0.2921,-0.2719,-0.2686,-0.2878,-0.2875,-0.2848,-0.2842,-0.2904,-0.2905,-0.2905,-0.2905,0,-0.1847,-0.1953,-0.204,-0.2199,-0.2252,-0.2312,-0.2474,-0.2522,-0.2657,-0.2719,-0.2754,-0.2864,-0.2861,-0.29,-0.2888,-0.2806,-0.2737,-0.2677,-0.2872,-0.2852,-0.2524,-0.2523,-0.2454,-0.2448,-0.2442,-0.2437,-0.2434,0,-0.1802,-0.1839,-0.2013,-0.2059,-0.2138,-0.225,-0.2313,-0.2478,-0.2519,-0.2676,-0.267,-0.2742,-0.2786,-0.2624,-0.2689,-0.2623,-0.2599,-0.255,-0.2541,-0.2502,-0.2478,-0.2485,-0.2491,-0.2425,-0.2423,-0.2422,-0.242,0,-0.1701,-0.1782,-0.1849,-0.1944,-0.2026,-0.2106,-0.2208,-0.2225,-0.2385,-0.2536,-0.2512,-0.2506,-0.2499,-0.2483,-0.2458,-0.2414,-0.2572,-0.2491,-0.2502,-0.2494,-0.2465,-0.2449,-0.2461,-0.2401,-0.2404,-0.2405,-0.2407,0,-0.1621,-0.1639,-0.1733,-0.1796,-0.1889,-0.1913,-0.2002,-0.2043,-0.2112,-0.2289,-0.2267,-0.2349,-0.2458,-0.2373,-0.2344,-0.2292,-0.2255,-0.2181,-0.2208,-0.2231,-0.2173,-0.2105,-0.189,0,0,0,0,0,-0.1525,-0.1523,-0.1571,-0.1631,-0.1713,-0.1765,-0.1898,-0.199,-0.2149,-0.2066,-0.2164,-0.2144,-0.2111,-0.2157,-0.2053,-0.224,-0.2265,-0.211,-0.2196,-0.2293,-0.2316,-0.227,0,0,0,0,0,0,-0.1459,-0.1498,-0.1512,-0.1468,-0.1471,-0.1542,-0.1618,-0.1737,-0.1708,-0.1879,-0.1865,-0.2001,-0.1994,-0.2124,-0.2,-0.2014,-0.2021,-0.2176,-0.217,-0.2281,-0.2301,-0.2319,-0.228,0,0,0,0,0]},{"header":{"parameterUnit":"m.s-1","parameterCategory":2,"la1":30.2991,"la2":30.254,"lo1":-89.0895,"lo2":-89.0444,"dy":0.0017,"dx":0.0017,"nx":28,"ny":28,"refTime":"2025-01-11T09:00:00:Z","depth":"4","parameterNumber":3,"parameterNumberName":"V-component_of_CURRENTS"},"data":[0,0,0,0,0,0,0,0,0,0,0,0,0,0,0,0,0,0,0,0,0,0,0,0,0,0,0,0,0,0,0,0,0,0,0,0,0,0,0,0,0,0,0,0,0,0,0,0,0,0,0,0,0,0,0,0,0,0,-0.0169,-0.0168,0,-0.0087,-0.0085,-0.0084,-0.0026,-0.0026,-0.0026,-0.0025,0.009,0.0092,0.0095,0,0,0,0,0,0,0,0,0,0,0,0,0,-0.0221,-0.0221,-0.0169,-0.0168,-0.0167,-0.0087,-0.0085,-0.0084,-0.0026,-0.0026,-0.0026,-0.0025,0.0089,0.0092,0.0095,0,0,0,0,0,0,0,0,0,0,0,0,0,-0.0173,-0.0221,-0.0169,-0.013,-0.0126,-0.0087,-0.0085,-0.0084,-0.0026,-0.0026,-0.0026,-0.0025,0.0088,0.0092,0.0096,0.0113,0,0,0.0109,0.0111,0,0,0,0,0,0,0,0,-0.0176,-0.0171,-0.0137,-0.0133,-0.0128,-0.0068,-0.0062,-0.0017,-0.0027,-0.0062,-0.0025,-0.0025,0.0039,0.0047,0.0063,0.0118,0.0123,0.0109,0.0112,0.0113,0.0115,0,0,0,0,0,0,0,-0.0179,-0.0174,-0.0134,-0.0136,-0.013,-0.0098,-0.0091,-0.0053,-0.0013,-0.0059,-0.0055,-0.0049,0.0042,0.0059,0.0067,0.0125,0.0109,0.0113,0.0115,0.0117,0.0216,0.0216,0,0,0,0,0,0,-0.0196,-0.0177,-0.0137,-0.0132,-0.0153,-0.0098,-0.009,-0.0086,-0.0014,-0.0004,-0.0049,-0.0047,0.0052,0.0062,0.0071,0.0099,0.0113,0.0117,0.012,0.0216,0.0216,0.0216,0,0,0,0,0,0,-0.0198,-0.0194,-0.0141,-0.0154,-0.0145,-0.0098,-0.0094,-0.0085,-0.0068,-0.0008,0.0004,-0.0043,0.0053,0.0065,0.0104,0.0103,0.0119,0.0123,0.0215,0.0216,0.0216,0.0152,0,0,0,0,0,0,-0.02,-0.0195,-0.0202,-0.0156,-0.0145,-0.0127,-0.0094,-0.0084,-0.0066,-0.0061,0.0002,0.0013,0.0054,0.0097,0.0108,0.011,0.0126,0.0215,0.0216,0.0216,0.0154,0.015,0.0147,0,0,0,0,0,-0.0202,-0.0215,-0.0203,-0.0198,-0.0155,-0.0128,-0.0119,-0.0082,-0.0066,-0.0065,-0.0018,0.0011,0.0106,0.01,0.0113,0.0116,0.0215,0.0216,0.0216,0.0156,0.0151,0.0147,0,0,0,0,0,0,-0.0242,-0.0209,-0.0195,-0.0198,-0.0169,-0.0119,-0.0117,-0.0089,-0.0051,-0.0047,0.0012,0.0027,0.006,0.0096,0.0089,0.0146,0.0166,0.0168,0.0116,0.0112,0.0108,0.0091,0.013,0,0,0,0,0,-0.0256,-0.0257,-0.0217,-0.0221,-0.0211,-0.0165,-0.015,-0.0125,-0.0084,-0.0067,-0.0023,0.0027,0.0071,0.0097,0.0137,0.0168,0.0206,0.0179,0.0175,0.0172,0.0167,0.0229,0.0231,0.0217,0.0217,0.0217,0,0,-0.0273,-0.0256,-0.0256,-0.023,-0.0205,-0.0198,-0.0155,-0.0139,-0.0128,-0.0061,-0.0035,0.0012,0.0075,0.011,0.0128,0.0141,0.0194,0.0172,0.0169,0.0166,0.023,0.0231,0.0232,0.0217,0.0217,0.0217,0,0,-0.031,-0.0293,-0.0307,-0.0287,-0.0259,-0.0228,-0.0228,-0.0182,-0.0156,-0.0126,-0.0073,-0.0025,0.0035,0.0087,0.012,0.0121,0.0169,0.0132,0.0105,0.0165,0.0166,0.0168,0.0206,0.0212,0.0134,0.0134,0.0134,0,-0.0334,-0.0343,-0.0306,-0.0312,-0.0304,-0.0248,-0.0258,-0.0222,-0.0168,-0.0148,-0.0129,-0.0026,0.0027,0.0083,0.0086,0.0112,0.0145,0.0114,0.0159,0.0162,0.0165,0.0204,0.0211,0.0131,0.0131,0.0132,0.0132,0,-0.0373,-0.0383,-0.039,-0.0378,-0.0363,-0.0364,-0.0314,-0.0293,-0.0257,-0.0214,-0.0157,-0.0079,-0.0018,0.0011,0.005,0.0099,0.0114,0.0142,0.0166,0.0162,0.0204,0.0212,0.0127,0.0128,0.0129,0.0129,0,0,-0.0418,-0.0421,-0.0423,-0.0437,-0.0401,-0.0396,-0.0376,-0.034,-0.0328,-0.0259,-0.0231,-0.0139,-0.0093,-0.0052,0.0012,0.0072,0.0123,0.011,0.0114,0.0139,0.0239,0.0224,0.0232,0.0158,0.016,0.0161,0.0255,0,-0.0462,-0.0501,-0.0481,-0.0513,-0.0527,-0.0477,-0.0466,-0.0422,-0.0371,-0.0328,-0.0228,-0.0179,-0.0116,-0.0087,-0.0017,0.0086,0.0144,0.0093,0.0247,0.0251,0.0231,0.0241,0.0165,0.0262,0.0264,0.0265,0.0266,0,-0.0503,-0.0526,-0.0573,-0.0588,-0.0589,-0.0598,-0.0573,-0.0553,-0.047,-0.0427,-0.0349,-0.027,-0.017,-0.0118,0.0055,0.0018,0.0118,0.0203,0.0209,0.0222,0.0252,0.0272,0.0283,0.0282,0.028,0.0279,0.0278,0,-0.0554,-0.0588,-0.0635,-0.0638,-0.0641,-0.0654,-0.0649,-0.0588,-0.0576,-0.0488,-0.0463,-0.0332,-0.0267,-0.0122,0.0055,0.0054,0.0246,0.0268,0.0349,0.0349,0.0362,0.036,0.039,0.039,0.039,0.0389,0.0389,0,-0.06,-0.0638,-0.0671,-0.0696,-0.0753,-0.0723,-0.0754,-0.0721,-0.067,-0.0652,-0.0524,-0.0475,-0.0263,-0.0123,0.0034,0.0214,0.0232,0.0343,0.0376,0.0332,0.0325,0.0368,0.0364,0.0393,0.0392,0.0392,0.0391,0,-0.0641,-0.0662,-0.0725,-0.0763,-0.0782,-0.082,-0.0842,-0.0851,-0.0792,-0.0762,-0.0738,-0.0579,-0.0396,-0.018,0.0063,0.0175,0.0357,0.042,0.0343,0.037,0.042,0.0412,0.0502,0.0502,0.0502,0.0502,0.0503,0,-0.0664,-0.0702,-0.0787,-0.0838,-0.0865,-0.0916,-0.0947,-0.0918,-0.0916,-0.0821,-0.0806,-0.0634,-0.0501,-0.0177,0.0043,0.0334,0.0381,0.0458,0.0451,0.041,0.0433,0.0425,0.0417,0.0503,0.0503,0.0503,0.0503,0,-0.0705,-0.0743,-0.0796,-0.0906,-0.0971,-0.1029,-0.1065,-0.1074,-0.1017,-0.0974,-0.0845,-0.0659,-0.045,-0.019,0.0044,0.0253,0.0396,0.0462,0.0462,0.0457,0.0413,0.0434,0.0425,0.0504,0.0504,0.0504,0.0504,0,-0.0734,-0.0786,-0.0867,-0.0957,-0.1049,-0.1108,-0.1122,-0.11,-0.1084,-0.0964,-0.0928,-0.068,-0.0535,-0.0232,-0.002,0.0187,0.0233,0.0285,0.0296,0.0297,0.0214,0.0126,0.0157,0,0,0,0,0,-0.075,-0.0813,-0.0909,-0.1005,-0.1098,-0.1144,-0.1183,-0.1174,-0.1125,-0.1043,-0.0977,-0.0771,-0.044,-0.0299,-0.0095,-0.0029,0.0255,0.0213,0.0315,0.0509,0.0508,0.0444,0,0,0,0,0,0,-0.0764,-0.0855,-0.0907,-0.1024,-0.1094,-0.118,-0.1206,-0.1174,-0.1113,-0.1037,-0.086,-0.0744,-0.0422,-0.0552,-0.0097,-0.0034,0.0052,0.0377,0.0381,0.051,0.0509,0.0508,0.0442,0,0,0,0,0]}]]